contact:dominique.lefevre@mio.osupytheas.fr, maurice.libes@osupytheas.fr, didier.mallarino@osupytheas.fr
Project:EMSO http://www.emso-fr.org/EMSO-France
Depth: 2436.0 m
Title:EMSO Ligure Ouest : Data MII capteur MICROCAT
DateTime_Computer,Latitude,Longitude,Temperature,Conductivity,Pressure,DateTime_Instrument
DateTime_Computer,Latitude,Longitude,degC,S m-1,dbar,DateTime_Instrument
2021-02-08T00:00:36Z,42.805,6.029,13.3011,4.60074,2470.124,2021-2-08T02:01:39Z
2021-02-08T00:03:39Z,42.805,6.029,13.3004,4.60046,2470.124,2021-2-08T02:04:42Z
2021-02-08T00:06:42Z,42.805,6.029,13.3001,4.60053,2470.124,2021-2-08T02:07:45Z
2021-02-08T00:09:45Z,42.805,6.029,13.3013,4.60102,2470.133,2021-2-08T02:10:48Z
2021-02-08T00:12:48Z,42.805,6.029,13.3021,4.60042,2470.147,2021-2-08T02:13:51Z
2021-02-08T00:15:51Z,42.805,6.029,13.3019,4.60089,2470.147,2021-2-08T02:16:55Z
2021-02-08T00:18:54Z,42.805,6.029,13.3010,4.60053,2470.11,2021-2-08T02:19:58Z
2021-02-08T00:21:57Z,42.805,6.029,13.3015,4.60072,2470.11,2021-2-08T02:23:01Z
2021-02-08T00:25:01Z,42.805,6.029,13.3012,4.60078,2470.087,2021-2-08T02:26:04Z
2021-02-08T00:28:04Z,42.805,6.029,13.3029,4.60057,2470.124,2021-2-08T02:29:07Z
2021-02-08T00:31:07Z,42.805,6.029,13.3006,4.60075,2470.124,2021-2-08T02:32:10Z
2021-02-08T00:34:10Z,42.805,6.029,13.3018,4.60069,2470.11,2021-2-08T02:35:13Z
2021-02-08T00:37:13Z,42.805,6.029,13.3006,4.60043,2470.133,2021-2-08T02:38:16Z
2021-02-08T00:40:16Z,42.805,6.029,13.3012,4.60042,2470.147,2021-2-08T02:41:19Z
2021-02-08T00:43:19Z,42.805,6.029,13.2996,4.60064,2470.147,2021-2-08T02:44:23Z
2021-02-08T00:46:22Z,42.805,6.029,13.3010,4.60035,2470.133,2021-2-08T02:47:26Z
2021-02-08T00:49:26Z,42.805,6.029,13.3000,4.60045,2470.147,2021-2-08T02:50:29Z
2021-02-08T00:52:29Z,42.805,6.029,13.3006,4.60050,2470.133,2021-2-08T02:53:32Z
2021-02-08T00:55:32Z,42.805,6.029,13.3022,4.60049,2470.147,2021-2-08T02:56:35Z
2021-02-08T00:58:35Z,42.805,6.029,13.3012,4.60054,2470.147,2021-2-08T02:59:38Z
2021-02-08T01:01:38Z,42.805,6.029,13.3010,4.60061,2470.11,2021-2-08T03:02:41Z
2021-02-08T01:04:41Z,42.805,6.029,13.3001,4.60050,2470.124,2021-2-08T03:05:44Z
2021-02-08T01:07:44Z,42.805,6.029,13.3006,4.60031,2470.119,2021-2-08T03:08:48Z
2021-02-08T01:10:47Z,42.805,6.029,13.3000,4.60029,2470.171,2021-2-08T03:11:51Z
2021-02-08T01:13:50Z,42.805,6.029,13.3001,4.60043,2470.156,2021-2-08T03:14:54Z
2021-02-08T01:16:54Z,42.805,6.029,13.3006,4.60041,2470.133,2021-2-08T03:17:57Z
2021-02-08T01:19:57Z,42.805,6.029,13.3008,4.60065,2470.147,2021-2-08T03:21:00Z
2021-02-08T01:23:00Z,42.805,6.029,13.3000,4.60054,2470.147,2021-2-08T03:24:03Z
2021-02-08T01:26:03Z,42.805,6.029,13.3005,4.60057,2470.18,2021-2-08T03:27:06Z
2021-02-08T01:29:06Z,42.805,6.029,13.3004,4.60070,2470.171,2021-2-08T03:30:09Z
2021-02-08T01:32:09Z,42.805,6.029,13.3000,4.60046,2470.147,2021-2-08T03:33:12Z
2021-02-08T01:35:12Z,42.805,6.029,13.3011,4.60074,2470.18,2021-2-08T03:36:16Z
2021-02-08T01:38:15Z,42.805,6.029,13.3017,4.60052,2470.156,2021-2-08T03:39:19Z
2021-02-08T01:41:18Z,42.805,6.029,13.3009,4.60057,2470.156,2021-2-08T03:42:22Z
2021-02-08T01:44:22Z,42.805,6.029,13.3032,4.60063,2470.18,2021-2-08T03:45:25Z
2021-02-08T01:47:25Z,42.805,6.029,13.3008,4.60070,2470.217,2021-2-08T03:48:28Z
2021-02-08T01:50:28Z,42.805,6.029,13.3009,4.60039,2470.18,2021-2-08T03:51:31Z
2021-02-08T01:53:31Z,42.805,6.029,13.3013,4.60073,2470.18,2021-2-08T03:54:34Z
2021-02-08T01:56:34Z,42.805,6.029,13.3000,4.60038,2470.18,2021-2-08T03:57:37Z
2021-02-08T01:59:37Z,42.805,6.029,13.3007,4.60020,2470.18,2021-2-08T04:00:41Z
2021-02-08T02:02:40Z,42.805,6.029,13.3001,4.60031,2470.217,2021-2-08T04:03:44Z
2021-02-08T02:05:43Z,42.805,6.029,13.2997,4.60027,2470.194,2021-2-08T04:06:47Z
2021-02-08T02:08:47Z,42.805,6.029,13.3006,4.60036,2470.217,2021-2-08T04:09:50Z
2021-02-08T02:11:50Z,42.805,6.029,13.3002,4.60026,2470.208,2021-2-08T04:12:53Z
2021-02-08T02:14:53Z,42.805,6.029,13.3009,4.60030,2470.203,2021-2-08T04:15:56Z
2021-02-08T02:17:56Z,42.805,6.029,13.2999,4.60035,2470.18,2021-2-08T04:18:59Z
2021-02-08T02:20:59Z,42.805,6.029,13.3007,4.60032,2470.217,2021-2-08T04:22:02Z
2021-02-08T02:24:02Z,42.805,6.029,13.2998,4.60036,2470.194,2021-2-08T04:25:05Z
2021-02-08T02:27:05Z,42.805,6.029,13.3001,4.60038,2470.18,2021-2-08T04:28:09Z
2021-02-08T02:30:08Z,42.805,6.029,13.3000,4.60037,2470.194,2021-2-08T04:31:12Z
2021-02-08T02:33:12Z,42.805,6.029,13.3007,4.60047,2470.203,2021-2-08T04:34:15Z
2021-02-08T02:36:15Z,42.805,6.029,13.3004,4.60028,2470.217,2021-2-08T04:37:18Z
2021-02-08T02:39:18Z,42.805,6.029,13.3008,4.60041,2470.18,2021-2-08T04:40:21Z
2021-02-08T02:42:21Z,42.805,6.029,13.3018,4.60049,2470.217,2021-2-08T04:43:24Z
2021-02-08T02:45:24Z,42.805,6.029,13.3008,4.60028,2470.203,2021-2-08T04:46:27Z
2021-02-08T02:48:27Z,42.805,6.029,13.3000,4.60032,2470.217,2021-2-08T04:49:30Z
2021-02-08T02:51:30Z,42.805,6.029,13.3011,4.60062,2470.203,2021-2-08T04:52:34Z
2021-02-08T02:54:33Z,42.805,6.029,13.2997,4.60064,2470.24,2021-2-08T04:55:37Z
2021-02-08T02:57:36Z,42.805,6.029,13.3007,4.60026,2470.217,2021-2-08T04:58:40Z
2021-02-08T03:00:40Z,42.805,6.029,13.3009,4.60031,2470.217,2021-2-08T05:01:43Z
2021-02-08T03:03:43Z,42.805,6.029,13.3003,4.60034,2470.203,2021-2-08T05:04:46Z
2021-02-08T03:06:46Z,42.805,6.029,13.3000,4.60033,2470.264,2021-2-08T05:07:49Z
2021-02-08T03:09:49Z,42.805,6.029,13.2997,4.60046,2470.227,2021-2-08T05:10:52Z
2021-02-08T03:12:52Z,42.805,6.029,13.3002,4.60052,2470.227,2021-2-08T05:13:55Z
2021-02-08T03:15:55Z,42.805,6.029,13.3015,4.60062,2470.227,2021-2-08T05:16:58Z
2021-02-08T03:18:58Z,42.805,6.029,13.3015,4.60039,2470.24,2021-2-08T05:20:02Z
2021-02-08T03:22:01Z,42.805,6.029,13.3007,4.60057,2470.264,2021-2-08T05:23:05Z
2021-02-08T03:25:04Z,42.805,6.029,13.3010,4.60041,2470.24,2021-2-08T05:26:08Z
2021-02-08T03:28:08Z,42.805,6.029,13.3008,4.60053,2470.273,2021-2-08T05:29:11Z
2021-02-08T03:31:11Z,42.805,6.029,13.3007,4.60039,2470.24,2021-2-08T05:32:14Z
2021-02-08T03:34:14Z,42.805,6.029,13.3009,4.60040,2470.227,2021-2-08T05:35:17Z
2021-02-08T03:37:17Z,42.805,6.029,13.3009,4.60035,2470.203,2021-2-08T05:38:20Z
2021-02-08T03:40:20Z,42.805,6.029,13.3014,4.60072,2470.264,2021-2-08T05:41:23Z
2021-02-08T03:43:23Z,42.805,6.029,13.3009,4.60058,2470.264,2021-2-08T05:44:27Z
2021-02-08T03:46:26Z,42.805,6.029,13.3028,4.60063,2470.227,2021-2-08T05:47:30Z
2021-02-08T03:49:29Z,42.805,6.029,13.3006,4.60062,2470.264,2021-2-08T05:50:33Z
2021-02-08T03:52:33Z,42.805,6.029,13.3007,4.60062,2470.25,2021-2-08T05:53:36Z
2021-02-08T03:55:36Z,42.805,6.029,13.3011,4.60062,2470.287,2021-2-08T05:56:39Z
2021-02-08T03:58:39Z,42.805,6.029,13.3023,4.60059,2470.25,2021-2-08T05:59:42Z
2021-02-08T04:01:42Z,42.805,6.029,13.3026,4.60045,2470.264,2021-2-08T06:02:45Z
2021-02-08T04:04:45Z,42.805,6.029,13.3039,4.60061,2470.264,2021-2-08T06:05:48Z
2021-02-08T04:07:48Z,42.805,6.029,13.3029,4.60041,2470.25,2021-2-08T06:08:51Z
2021-02-08T04:10:51Z,42.805,6.029,13.3024,4.60069,2470.273,2021-2-08T06:11:55Z
2021-02-08T04:13:54Z,42.805,6.029,13.3015,4.60067,2470.203,2021-2-08T06:14:58Z
2021-02-08T04:16:57Z,42.805,6.029,13.2999,4.60060,2470.24,2021-2-08T06:18:01Z
2021-02-08T04:20:01Z,42.805,6.029,13.3014,4.60064,2470.287,2021-2-08T06:21:04Z
2021-02-08T04:23:04Z,42.805,6.029,13.3011,4.60053,2470.264,2021-2-08T06:24:07Z
2021-02-08T04:26:07Z,42.805,6.029,13.3026,4.60049,2470.264,2021-2-08T06:27:10Z
2021-02-08T04:29:10Z,42.805,6.029,13.3021,4.60066,2470.287,2021-2-08T06:30:13Z
2021-02-08T04:32:13Z,42.805,6.029,13.3009,4.60076,2470.25,2021-2-08T06:33:16Z
2021-02-08T04:35:16Z,42.805,6.029,13.3022,4.60062,2470.287,2021-2-08T06:36:20Z
2021-02-08T04:38:19Z,42.805,6.029,13.3028,4.60043,2470.264,2021-2-08T06:39:23Z
2021-02-08T04:41:22Z,42.805,6.029,13.3006,4.60046,2470.264,2021-2-08T06:42:26Z
2021-02-08T04:44:26Z,42.805,6.029,13.3002,4.60056,2470.287,2021-2-08T06:45:29Z
2021-02-08T04:47:29Z,42.805,6.029,13.3015,4.60043,2470.273,2021-2-08T06:48:32Z
2021-02-08T04:50:32Z,42.805,6.029,13.3029,4.60053,2470.273,2021-2-08T06:51:35Z
2021-02-08T04:53:35Z,42.805,6.029,13.3008,4.60041,2470.24,2021-2-08T06:54:38Z
2021-02-08T04:56:38Z,42.805,6.029,13.3004,4.60060,2470.273,2021-2-08T06:57:41Z
2021-02-08T04:59:41Z,42.805,6.029,13.3008,4.60046,2470.287,2021-2-08T07:00:45Z
2021-02-08T05:02:44Z,42.805,6.029,13.3011,4.60047,2470.25,2021-2-08T07:03:48Z
2021-02-08T05:05:47Z,42.805,6.029,13.3005,4.60074,2470.297,2021-2-08T07:06:51Z
2021-02-08T05:08:51Z,42.805,6.029,13.3011,4.60069,2470.24,2021-2-08T07:09:54Z
2021-02-08T05:11:54Z,42.805,6.029,13.3021,4.60064,2470.264,2021-2-08T07:12:57Z
2021-02-08T05:14:57Z,42.805,6.029,13.3009,4.60078,2470.25,2021-2-08T07:16:00Z
2021-02-08T05:18:00Z,42.805,6.029,13.3016,4.60060,2470.264,2021-2-08T07:19:03Z
2021-02-08T05:21:03Z,42.805,6.029,13.3025,4.60041,2470.25,2021-2-08T07:22:06Z
2021-02-08T05:24:06Z,42.805,6.029,13.3011,4.60064,2470.25,2021-2-08T07:25:09Z
2021-02-08T05:27:09Z,42.805,6.029,13.3020,4.60043,2470.264,2021-2-08T07:28:13Z
2021-02-08T05:30:12Z,42.805,6.029,13.3020,4.60074,2470.273,2021-2-08T07:31:16Z
2021-02-08T05:33:15Z,42.805,6.029,13.3026,4.60066,2470.297,2021-2-08T07:34:19Z
2021-02-08T05:36:19Z,42.805,6.029,13.3014,4.60017,2470.25,2021-2-08T07:37:22Z
2021-02-08T05:39:22Z,42.805,6.029,13.3014,4.60075,2470.273,2021-2-08T07:40:25Z
2021-02-08T05:42:25Z,42.805,6.029,13.3031,4.60067,2470.297,2021-2-08T07:43:28Z
2021-02-08T05:45:28Z,42.805,6.029,13.3031,4.60052,2470.31,2021-2-08T07:46:31Z
2021-02-08T05:48:31Z,42.805,6.029,13.3019,4.60064,2470.25,2021-2-08T07:49:34Z
2021-02-08T05:51:34Z,42.805,6.029,13.3030,4.60067,2470.287,2021-2-08T07:52:38Z
2021-02-08T05:54:37Z,42.805,6.029,13.3029,4.60072,2470.264,2021-2-08T07:55:41Z
2021-02-08T05:57:40Z,42.805,6.029,13.3037,4.60054,2470.287,2021-2-08T07:58:44Z
2021-02-08T06:00:44Z,42.805,6.029,13.3042,4.60045,2470.273,2021-2-08T08:01:47Z
2021-02-08T06:03:47Z,42.805,6.029,13.3042,4.60052,2470.273,2021-2-08T08:04:50Z
2021-02-08T06:06:50Z,42.805,6.029,13.3039,4.60035,2470.273,2021-2-08T08:07:53Z
2021-02-08T06:09:53Z,42.805,6.029,13.3006,4.60057,2470.25,2021-2-08T08:10:56Z
2021-02-08T06:12:56Z,42.805,6.029,13.3029,4.60068,2470.273,2021-2-08T08:13:59Z
2021-02-08T06:15:59Z,42.805,6.029,13.3052,4.60081,2470.273,2021-2-08T08:17:03Z
2021-02-08T06:19:02Z,42.805,6.029,13.3009,4.60072,2470.273,2021-2-08T08:20:06Z
2021-02-08T06:22:05Z,42.805,6.029,13.3015,4.60059,2470.273,2021-2-08T08:23:09Z
2021-02-08T06:25:09Z,42.805,6.029,13.3022,4.60069,2470.236,2021-2-08T08:26:12Z
2021-02-08T06:28:12Z,42.805,6.029,13.3043,4.60072,2470.264,2021-2-08T08:29:15Z
2021-02-08T06:31:15Z,42.805,6.029,13.3046,4.60072,2470.264,2021-2-08T08:32:18Z
2021-02-08T06:34:18Z,42.805,6.029,13.3050,4.60140,2470.287,2021-2-08T08:35:21Z
2021-02-08T06:37:21Z,42.805,6.029,13.3056,4.60032,2470.273,2021-2-08T08:38:24Z
2021-02-08T06:40:24Z,42.805,6.029,13.3048,4.60064,2470.25,2021-2-08T08:41:27Z
2021-02-08T06:43:27Z,42.805,6.029,13.3021,4.60058,2470.264,2021-2-08T08:44:31Z
2021-02-08T06:46:30Z,42.805,6.029,13.3036,4.60084,2470.264,2021-2-08T08:47:34Z
2021-02-08T06:49:33Z,42.805,6.029,13.3048,4.60065,2470.25,2021-2-08T08:50:37Z
2021-02-08T06:52:37Z,42.805,6.029,13.3041,4.60059,2470.264,2021-2-08T08:53:40Z
2021-02-08T06:55:40Z,42.805,6.029,13.3017,4.60097,2470.25,2021-2-08T08:56:43Z
2021-02-08T06:58:43Z,42.805,6.029,13.3030,4.60086,2470.287,2021-2-08T08:59:46Z
2021-02-08T07:01:46Z,42.805,6.029,13.3024,4.60094,2470.264,2021-2-08T09:02:49Z
2021-02-08T07:04:49Z,42.805,6.029,13.3013,4.60056,2470.227,2021-2-08T09:05:52Z
2021-02-08T07:07:52Z,42.805,6.029,13.3065,4.60045,2470.24,2021-2-08T09:08:55Z
2021-02-08T07:10:55Z,42.805,6.029,13.3048,4.60064,2470.24,2021-2-08T09:11:59Z
2021-02-08T07:13:58Z,42.805,6.029,13.3077,4.60113,2470.264,2021-2-08T09:15:02Z
2021-02-08T07:17:02Z,42.805,6.029,13.3058,4.60052,2470.227,2021-2-08T09:18:05Z
2021-02-08T07:20:05Z,42.805,6.029,13.3021,4.60101,2470.264,2021-2-08T09:21:08Z
2021-02-08T07:23:08Z,42.805,6.029,13.3027,4.60072,2470.264,2021-2-08T09:24:11Z
2021-02-08T07:26:11Z,42.805,6.029,13.3031,4.60077,2470.264,2021-2-08T09:27:14Z
2021-02-08T07:29:14Z,42.805,6.029,13.3016,4.60079,2470.18,2021-2-08T09:30:17Z
2021-02-08T07:32:17Z,42.805,6.029,13.3016,4.60041,2470.287,2021-2-08T09:33:20Z
2021-02-08T07:35:20Z,42.805,6.029,13.3021,4.60057,2470.24,2021-2-08T09:36:24Z
2021-02-08T07:38:23Z,42.805,6.029,13.3035,4.60064,2470.227,2021-2-08T09:39:27Z
2021-02-08T07:41:26Z,42.805,6.029,13.3018,4.60053,2470.25,2021-2-08T09:42:30Z
2021-02-08T07:44:30Z,42.805,6.029,13.3021,4.60059,2470.25,2021-2-08T09:45:33Z
2021-02-08T07:47:33Z,42.805,6.029,13.3019,4.60072,2470.227,2021-2-08T09:48:36Z
2021-02-08T07:50:36Z,42.805,6.029,13.3034,4.60062,2470.203,2021-2-08T09:51:39Z
2021-02-08T07:53:39Z,42.805,6.029,13.3036,4.60036,2470.24,2021-2-08T09:54:42Z
2021-02-08T07:56:42Z,42.805,6.029,13.3039,4.60051,2470.227,2021-2-08T09:57:45Z
2021-02-08T07:59:45Z,42.805,6.029,13.3014,4.60085,2470.24,2021-2-08T10:00:49Z
2021-02-08T08:02:48Z,42.805,6.029,13.3019,4.60062,2470.227,2021-2-08T10:03:52Z
2021-02-08T08:05:51Z,42.805,6.029,13.3025,4.60069,2470.25,2021-2-08T10:06:55Z
2021-02-08T08:08:55Z,42.805,6.029,13.3009,4.60043,2470.227,2021-2-08T10:09:58Z
2021-02-08T08:11:58Z,42.805,6.029,13.3036,4.60067,2470.217,2021-2-08T10:13:01Z
2021-02-08T08:15:01Z,42.805,6.029,13.3039,4.60041,2470.203,2021-2-08T10:16:04Z
2021-02-08T08:18:04Z,42.805,6.029,13.3029,4.60062,2470.24,2021-2-08T10:19:07Z
2021-02-08T08:21:07Z,42.805,6.029,13.3032,4.60079,2470.203,2021-2-08T10:22:10Z
2021-02-08T08:24:10Z,42.805,6.029,13.3009,4.60039,2470.25,2021-2-08T10:25:13Z
2021-02-08T08:27:13Z,42.805,6.029,13.2996,4.60040,2470.217,2021-2-08T10:28:17Z
2021-02-08T08:30:16Z,42.805,6.029,13.3012,4.60062,2470.194,2021-2-08T10:31:20Z
2021-02-08T08:33:20Z,42.805,6.029,13.3023,4.60050,2470.227,2021-2-08T10:34:23Z
2021-02-08T08:36:23Z,42.805,6.029,13.3013,4.60057,2470.24,2021-2-08T10:37:26Z
2021-02-08T08:39:26Z,42.805,6.029,13.3041,4.60068,2470.227,2021-2-08T10:40:29Z
2021-02-08T08:42:29Z,42.805,6.029,13.3000,4.60064,2470.203,2021-2-08T10:43:32Z
2021-02-08T08:45:32Z,42.805,6.029,13.3031,4.60047,2470.18,2021-2-08T10:46:35Z
2021-02-08T08:48:35Z,42.805,6.029,13.3025,4.60051,2470.227,2021-2-08T10:49:38Z
2021-02-08T08:51:38Z,42.805,6.029,13.3024,4.60048,2470.227,2021-2-08T10:52:42Z
2021-02-08T08:54:41Z,42.805,6.029,13.3022,4.60051,2470.203,2021-2-08T10:55:45Z
2021-02-08T08:57:45Z,42.805,6.029,13.3015,4.60064,2470.194,2021-2-08T10:58:48Z
2021-02-08T09:00:48Z,42.805,6.029,13.3015,4.60050,2470.194,2021-2-08T11:01:51Z
2021-02-08T09:03:51Z,42.805,6.029,13.3009,4.60050,2470.203,2021-2-08T11:04:54Z
2021-02-08T09:06:54Z,42.805,6.029,13.3011,4.60040,2470.194,2021-2-08T11:07:57Z
2021-02-08T09:09:57Z,42.805,6.029,13.3012,4.60038,2470.203,2021-2-08T11:11:00Z
2021-02-08T09:13:00Z,42.805,6.029,13.3020,4.60059,2470.203,2021-2-08T11:14:03Z
2021-02-08T09:16:03Z,42.805,6.029,13.3031,4.60067,2470.24,2021-2-08T11:17:07Z
2021-02-08T09:19:06Z,42.805,6.029,13.3020,4.60053,2470.18,2021-2-08T11:20:10Z
2021-02-08T09:22:09Z,42.805,6.029,13.3021,4.60055,2470.24,2021-2-08T11:23:13Z
2021-02-08T09:25:13Z,42.805,6.029,13.3015,4.60032,2470.18,2021-2-08T11:26:16Z
2021-02-08T09:28:16Z,42.805,6.029,13.3015,4.60034,2470.194,2021-2-08T11:29:19Z
2021-02-08T09:31:19Z,42.805,6.029,13.3019,4.60057,2470.18,2021-2-08T11:32:22Z
2021-02-08T09:34:22Z,42.805,6.029,13.3022,4.60064,2470.18,2021-2-08T11:35:25Z
2021-02-08T09:37:25Z,42.805,6.029,13.3021,4.60054,2470.171,2021-2-08T11:38:28Z
2021-02-08T09:40:28Z,42.805,6.029,13.3005,4.60031,2470.217,2021-2-08T11:41:32Z
2021-02-08T09:43:31Z,42.805,6.029,13.3008,4.60041,2470.194,2021-2-08T11:44:35Z
2021-02-08T09:46:34Z,42.805,6.029,13.3000,4.60033,2470.203,2021-2-08T11:47:38Z
2021-02-08T09:49:38Z,42.805,6.029,13.3004,4.60033,2470.18,2021-2-08T11:50:41Z
2021-02-08T09:52:41Z,42.805,6.029,13.2999,4.60026,2470.156,2021-2-08T11:53:44Z
2021-02-08T09:55:44Z,42.805,6.029,13.3006,4.60047,2470.18,2021-2-08T11:56:47Z
2021-02-08T09:58:47Z,42.805,6.029,13.3001,4.60053,2470.217,2021-2-08T11:59:50Z
2021-02-08T10:01:50Z,42.805,6.029,13.3015,4.60043,2470.18,2021-2-08T12:02:53Z
2021-02-08T10:04:53Z,42.805,6.029,13.3019,4.60055,2470.217,2021-2-08T12:05:57Z
2021-02-08T10:07:56Z,42.805,6.029,13.3015,4.60055,2470.18,2021-2-08T12:09:00Z
2021-02-08T10:10:59Z,42.805,6.029,13.3020,4.60049,2470.156,2021-2-08T12:12:03Z
2021-02-08T10:14:03Z,42.805,6.029,13.3019,4.60047,2470.194,2021-2-08T12:15:06Z
2021-02-08T10:17:06Z,42.805,6.029,13.3011,4.60080,2470.133,2021-2-08T12:18:09Z
2021-02-08T10:20:09Z,42.805,6.029,13.2997,4.60054,2470.217,2021-2-08T12:21:12Z
2021-02-08T10:23:12Z,42.805,6.029,13.3007,4.60059,2470.156,2021-2-08T12:24:15Z
2021-02-08T10:26:15Z,42.805,6.029,13.3016,4.60041,2470.194,2021-2-08T12:27:18Z
2021-02-08T10:29:18Z,42.805,6.029,13.3019,4.60026,2470.171,2021-2-08T12:30:22Z
2021-02-08T10:32:21Z,42.805,6.029,13.3017,4.60072,2470.194,2021-2-08T12:33:25Z
2021-02-08T10:35:24Z,42.805,6.029,13.3025,4.60062,2470.203,2021-2-08T12:36:28Z
2021-02-08T10:38:28Z,42.805,6.029,13.3007,4.60056,2470.119,2021-2-08T12:39:31Z
2021-02-08T10:41:31Z,42.805,6.029,13.3009,4.60045,2470.18,2021-2-08T12:42:34Z
2021-02-08T10:44:34Z,42.805,6.029,13.3024,4.60026,2470.194,2021-2-08T12:45:37Z
2021-02-08T10:47:37Z,42.805,6.029,13.3010,4.59999,2470.18,2021-2-08T12:48:40Z
2021-02-08T10:50:40Z,42.805,6.029,13.2997,4.60023,2470.156,2021-2-08T12:51:43Z
2021-02-08T10:53:43Z,42.805,6.029,13.3006,4.60023,2470.194,2021-2-08T12:54:47Z
2021-02-08T10:56:46Z,42.805,6.029,13.2991,4.60045,2470.156,2021-2-08T12:57:50Z
2021-02-08T10:59:49Z,42.805,6.029,13.3015,4.60032,2470.171,2021-2-08T13:00:53Z
2021-02-08T11:02:53Z,42.805,6.029,13.3034,4.60028,2470.18,2021-2-08T13:03:56Z
2021-02-08T11:05:56Z,42.805,6.029,13.3027,4.60063,2470.147,2021-2-08T13:06:59Z
2021-02-08T11:08:59Z,42.805,6.029,13.3024,4.60055,2470.18,2021-2-08T13:10:02Z
2021-02-08T11:12:02Z,42.805,6.029,13.3017,4.60062,2470.133,2021-2-08T13:13:05Z
2021-02-08T11:15:05Z,42.805,6.029,13.3024,4.60077,2470.217,2021-2-08T13:16:08Z
2021-02-08T11:18:08Z,42.805,6.029,13.2998,4.60052,2470.133,2021-2-08T13:19:12Z
2021-02-08T11:21:11Z,42.805,6.029,13.3028,4.60031,2470.18,2021-2-08T13:22:15Z
2021-02-08T11:24:14Z,42.805,6.029,13.3015,4.60074,2470.124,2021-2-08T13:25:18Z
2021-02-08T11:27:18Z,42.805,6.029,13.3010,4.60073,2470.18,2021-2-08T13:28:21Z
2021-02-08T11:30:21Z,42.805,6.029,13.3013,4.60051,2470.194,2021-2-08T13:31:24Z
2021-02-08T11:33:24Z,42.805,6.029,13.3031,4.60057,2470.194,2021-2-08T13:34:27Z
2021-02-08T11:36:27Z,42.805,6.029,13.3031,4.60058,2470.194,2021-2-08T13:37:30Z
2021-02-08T11:39:30Z,42.805,6.029,13.3018,4.60071,2470.133,2021-2-08T13:40:33Z
2021-02-08T11:42:33Z,42.805,6.029,13.3028,4.60086,2470.133,2021-2-08T13:43:37Z
2021-02-08T11:45:36Z,42.805,6.029,13.3029,4.60054,2470.171,2021-2-08T13:46:40Z
2021-02-08T11:48:39Z,42.805,6.029,13.3039,4.60079,2470.147,2021-2-08T13:49:43Z
2021-02-08T11:51:43Z,42.805,6.029,13.3035,4.60059,2470.156,2021-2-08T13:52:46Z
2021-02-08T11:54:46Z,42.805,6.029,13.3041,4.60070,2470.171,2021-2-08T13:55:49Z
2021-02-08T11:57:49Z,42.805,6.029,13.3014,4.60049,2470.11,2021-2-08T13:58:52Z
2021-02-08T12:00:52Z,42.805,6.029,13.3021,4.60117,2470.156,2021-2-08T14:01:55Z
2021-02-08T12:03:55Z,42.805,6.029,13.3042,4.60086,2470.133,2021-2-08T14:04:58Z
2021-02-08T12:06:58Z,42.805,6.029,13.3042,4.60087,2470.133,2021-2-08T14:08:02Z
2021-02-08T12:10:01Z,42.805,6.029,13.3042,4.60102,2470.171,2021-2-08T14:11:05Z
2021-02-08T12:13:04Z,42.805,6.029,13.3041,4.60054,2470.133,2021-2-08T14:14:08Z
2021-02-08T12:16:08Z,42.805,6.029,13.3046,4.60106,2470.171,2021-2-08T14:17:11Z
2021-02-08T12:19:11Z,42.805,6.029,13.3054,4.60039,2470.133,2021-2-08T14:20:14Z
2021-02-08T12:22:14Z,42.805,6.029,13.3063,4.60069,2470.133,2021-2-08T14:23:17Z
2021-02-08T12:25:17Z,42.805,6.029,13.3051,4.60044,2470.171,2021-2-08T14:26:20Z
2021-02-08T12:28:20Z,42.805,6.029,13.3026,4.60106,2470.147,2021-2-08T14:29:23Z
2021-02-08T12:31:23Z,42.805,6.029,13.3051,4.60019,2470.18,2021-2-08T14:32:27Z
2021-02-08T12:34:26Z,42.805,6.029,13.3061,4.60072,2470.133,2021-2-08T14:35:30Z
2021-02-08T12:37:29Z,42.805,6.029,13.3038,4.60062,2470.133,2021-2-08T14:38:33Z
2021-02-08T12:40:33Z,42.805,6.029,13.3026,4.60089,2470.147,2021-2-08T14:41:36Z
2021-02-08T12:43:36Z,42.805,6.029,13.3022,4.60096,2470.133,2021-2-08T14:44:39Z
2021-02-08T12:46:39Z,42.805,6.029,13.3031,4.60051,2470.147,2021-2-08T14:47:42Z
2021-02-08T12:49:42Z,42.805,6.029,13.3069,4.60054,2470.147,2021-2-08T14:50:45Z
2021-02-08T12:52:45Z,42.805,6.029,13.3050,4.60079,2470.133,2021-2-08T14:53:48Z
2021-02-08T12:55:48Z,42.805,6.029,13.3021,4.60024,2470.171,2021-2-08T14:56:51Z
2021-02-08T12:58:51Z,42.805,6.029,13.3045,4.60057,2470.171,2021-2-08T14:59:55Z
2021-02-08T13:01:54Z,42.805,6.029,13.3024,4.60033,2470.156,2021-2-08T15:02:58Z
2021-02-08T13:04:58Z,42.805,6.029,13.3012,4.60031,2470.171,2021-2-08T15:06:01Z
2021-02-08T13:08:01Z,42.805,6.029,13.3024,4.60031,2470.18,2021-2-08T15:09:04Z
2021-02-08T13:11:04Z,42.805,6.029,13.3027,4.60034,2470.124,2021-2-08T15:12:07Z
2021-02-08T13:14:07Z,42.805,6.029,13.3020,4.60041,2470.171,2021-2-08T15:15:10Z
2021-02-08T13:17:10Z,42.805,6.029,13.3026,4.60036,2470.18,2021-2-08T15:18:13Z
2021-02-08T13:20:13Z,42.805,6.029,13.3017,4.60043,2470.156,2021-2-08T15:21:16Z
2021-02-08T13:23:16Z,42.805,6.029,13.3031,4.60049,2470.147,2021-2-08T15:24:20Z
2021-02-08T13:26:19Z,42.805,6.029,13.3039,4.60101,2470.156,2021-2-08T15:27:23Z
2021-02-08T13:29:23Z,42.805,6.029,13.3064,4.60022,2470.156,2021-2-08T15:30:26Z
2021-02-08T13:32:26Z,42.805,6.029,13.3038,4.60031,2470.147,2021-2-08T15:33:29Z
2021-02-08T13:35:29Z,42.805,6.029,13.3036,4.60044,2470.156,2021-2-08T15:36:32Z
2021-02-08T13:38:32Z,42.805,6.029,13.3028,4.60085,2470.156,2021-2-08T15:39:35Z
2021-02-08T13:41:35Z,42.805,6.029,13.3035,4.60069,2470.171,2021-2-08T15:42:38Z
2021-02-08T13:44:38Z,42.805,6.029,13.3046,4.60045,2470.133,2021-2-08T15:45:41Z
2021-02-08T13:47:41Z,42.805,6.029,13.3067,4.60038,2470.171,2021-2-08T15:48:45Z
2021-02-08T13:50:44Z,42.805,6.029,13.3031,4.60021,2470.18,2021-2-08T15:51:48Z
2021-02-08T13:53:47Z,42.805,6.029,13.3021,4.60008,2470.18,2021-2-08T15:54:51Z
2021-02-08T13:56:51Z,42.805,6.029,13.3006,4.60015,2470.156,2021-2-08T15:57:54Z
2021-02-08T13:59:54Z,42.805,6.029,13.3026,4.60034,2470.171,2021-2-08T16:00:57Z
2021-02-08T14:02:57Z,42.805,6.029,13.3006,4.60028,2470.18,2021-2-08T16:04:00Z
2021-02-08T14:06:00Z,42.805,6.029,13.3004,4.60023,2470.156,2021-2-08T16:07:03Z
2021-02-08T14:09:03Z,42.805,6.029,13.3029,4.60029,2470.156,2021-2-08T16:10:06Z
2021-02-08T14:12:06Z,42.805,6.029,13.3037,4.60044,2470.171,2021-2-08T16:13:10Z
2021-02-08T14:15:09Z,42.805,6.029,13.3019,4.60035,2470.194,2021-2-08T16:16:13Z
2021-02-08T14:18:12Z,42.805,6.029,13.3021,4.60098,2470.171,2021-2-08T16:19:16Z
2021-02-08T14:21:16Z,42.805,6.029,13.3036,4.60054,2470.156,2021-2-08T16:22:19Z
2021-02-08T14:24:19Z,42.805,6.029,13.3068,4.60019,2470.171,2021-2-08T16:25:22Z
2021-02-08T14:27:22Z,42.805,6.029,13.3046,4.60031,2470.18,2021-2-08T16:28:25Z
2021-02-08T14:30:25Z,42.805,6.029,13.3039,4.60043,2470.194,2021-2-08T16:31:28Z
2021-02-08T14:33:28Z,42.805,6.029,13.3046,4.60049,2470.171,2021-2-08T16:34:31Z
2021-02-08T14:36:31Z,42.805,6.029,13.3021,4.60064,2470.194,2021-2-08T16:37:35Z
2021-02-08T14:39:34Z,42.805,6.029,13.3025,4.60057,2470.156,2021-2-08T16:40:38Z
2021-02-08T14:42:37Z,42.805,6.029,13.3076,4.60029,2470.24,2021-2-08T16:43:41Z
2021-02-08T14:45:41Z,42.805,6.029,13.3045,4.60075,2470.18,2021-2-08T16:46:44Z
2021-02-08T14:48:44Z,42.805,6.029,13.3048,4.60041,2470.203,2021-2-08T16:49:47Z
2021-02-08T14:51:47Z,42.805,6.029,13.3021,4.60074,2470.217,2021-2-08T16:52:50Z
2021-02-08T14:54:50Z,42.805,6.029,13.3015,4.60062,2470.217,2021-2-08T16:55:53Z
2021-02-08T14:57:53Z,42.805,6.029,13.3039,4.60064,2470.217,2021-2-08T16:58:56Z
2021-02-08T15:00:56Z,42.805,6.029,13.3072,4.60047,2470.203,2021-2-08T17:02:00Z
2021-02-08T15:03:59Z,42.805,6.029,13.3038,4.60058,2470.227,2021-2-08T17:05:03Z
2021-02-08T15:07:02Z,42.805,6.029,13.3026,4.60021,2470.24,2021-2-08T17:08:06Z
2021-02-08T15:10:06Z,42.805,6.029,13.3056,4.60059,2470.194,2021-2-08T17:11:09Z